GFSMA_250_rhum_012.txt.gz
RH
86 73 69 81 89 76 62 36 27 32 29 29 31 34 36 40 41 42 40 37 37 37 42 48 58 65 60 46 46 56 67 76 90 95 86 72 73 67 69 75 78 68 56
71 82 99 95 84 62 39 33 35 32 32 33 33 34 36 37 39 41 41 40 37 40 45 46 57 63 72 54 56 61 70 79 93 100 94 89 81 76 83 75 74 82 70
72 90 100 82 71 49 37 38 38 34 33 33 34 36 38 41 46 44 38 40 39 40 46 52 70 73 76 70 71 72 78 86 95 100 97 95 94 88 88 90 88 88 88
71 92 93 74 76 44 46 43 36 35 37 38 42 46 50 48 47 48 48 41 44 46 45 43 62 71 61 57 67 77 90 96 100 100 100 98 100 99 96 95 92 93 100
80 67 69 77 72 42 44 43 36 38 48 50 47 50 50 48 44 44 44 42 42 38 42 46 57 69 66 61 70 86 96 99 100 100 99 100 100 100 96 86 90 94 98
71 75 84 85 48 40 42 43 39 49 57 53 49 63 54 52 47 44 39 36 36 37 40 49 68 78 89 76 65 72 89 99 96 100 100 100 100 100 95 75 68 82 97
82 78 58 41 32 36 41 42 42 53 57 54 55 55 50 49 45 43 36 37 37 43 49 59 67 68 70 63 62 68 79 97 100 100 100 100 100 100 94 75 68 57 91
69 58 48 38 33 38 43 46 46 49 51 51 40 37 38 44 58 59 65 63 63 67 71 72 70 74 75 78 82 88 95 99 100 100 100 100 98 87 92 93 60 51 71
61 46 39 37 40 49 54 50 44 41 42 45 46 40 40 46 54 76 87 92 96 99 98 94 95 93 90 86 88 91 97 100 100 100 99 92 89 98 100 95 60 48 55
40 42 48 55 56 55 55 61 64 60 55 49 61 72 62 59 60 57 76 80 85 95 100 97 96 100 99 97 92 99 100 100 98 98 99 99 100 100 79 70 66 64 50
51 54 56 58 64 67 63 59 58 64 74 76 74 73 79 78 76 65 57 69 63 63 71 77 81 72 72 75 77 84 95 100 100 93 98 99 82 69 59 65 64 62 59
82 92 91 80 74 77 85 90 95 95 96 98 99 97 85 76 75 72 59 49 44 53 56 63 69 84 88 81 70 63 69 75 72 60 52 51 51 50 45 49 53 54 56
76 66 62 67 72 72 76 83 85 80 74 70 65 67 73 64 58 57 50 43 42 51 75 75 76 74 78 88 82 68 59 55 56 57 51 43 39 35 41 37 36 36 43
62 71 78 86 89 83 71 62 58 60 61 57 54 57 66 62 56 42 44 42 39 36 35 30 28 28 31 33 33 35 34 36 34 36 36 36 33 32 36 36 30 29 30
85 81 66 66 64 67 73 59 62 71 68 71 65 67 65 53 40 32 30 26 20 14 15 19 18 16 17 19 23 25 27 28 32 32 32 29 29 30 34 37 35 31 32
61 58 61 71 66 65 74 91 88 72 57 46 42 39 34 28 26 22 21 21 19 14 8 11 13 12 12 15 17 19 20 21 23 26 28 30 30 30 32 36 41 39 38
63 73 77 91 90 70 49 44 41 39 38 33 33 28 26 23 24 24 24 22 20 18 10 9 8 8 7 8 10 10 12 13 17 22 22 23 25 23 25 28 34 40 41
77 75 58 43 39 37 43 42 42 42 39 34 29 27 24 19 18 21 19 16 10 9 7 6 7 8 6 7 6 7 9 10 11 14 15 16 18 19 20 26 30 36 42
57 43 38 40 42 49 46 44 39 35 30 26 21 18 14 14 11 10 8 8 8 7 7 6 6 7 8 8 7 7 7 8 9 10 13 14 14 17 19 19 21 29 36
34 37 42 42 45 45 43 35 30 24 19 14 13 10 8 7 7 7 7 6 5 5 5 4 4 5 6 8 6 5 5 6 6 8 8 10 11 13 14 17 21 22 24
33 42 52 50 44 42 36 23 18 13 11 10 8 8 7 6 6 5 4 4 3 3 4 4 4 4 6 6 6 5 4 5 5 6 7 9 12 13 16 18 18 20 26
49 57 51 54 43 31 22 15 13 10 8 7 7 6 5 4 4 3 3 3 3 3 3 3 4 5 5 5 5 5 4 4 6 5 6 9 9 18 22 21 23 25 25
60 64 59 37 31 20 17 16 9 7 6 5 4 3 3 3 3 3 3 3 3 4 3 3 4 5 5 5 5 6 6 6 7 7 6 7 7 8 11 11 13 15 20
59 59 52 39 20 16 11 8 7 5 4 3 2 2 2 3 3 3 3 4 4 4 3 3 3 4 5 6 6 6 7 8 9 9 7 9 7 7 7 8 8 10 17
78 57 28 17 15 10 8 7 4 3 3 2 3 3 2 2 2 2 2 3 4 4 3 3 4 4 4 5 5 6 8 10 11 10 8 10 9 7 8 8 9 11 18
46 20 16 12 8 7 7 4 3 3 2 3 3 2 2 2 2 2 2 2 2 3 3 3 3 4 5 5 6 6 8 8 10 10 8 11 11 10 9 9 10 12 16

GFSMA_250_rhum_015.txt.gz
RH
100 99 98 87 90 82 74 89 78 73 58 36 33 34 30 32 33 34 35 36 38 40 42 40 36 34 35 39 44 46 52 56 73 73 67 65 75 86 94 98 100 100 100
95 84 86 96 80 71 85 77 72 66 58 38 40 36 33 34 35 36 40 44 45 46 46 46 41 35 38 41 45 48 45 46 57 72 66 62 70 77 95 100 100 97 100
82 100 95 84 69 70 84 74 62 69 66 42 42 35 36 40 43 48 49 55 60 58 46 42 39 41 42 40 40 40 41 46 51 61 79 92 85 76 87 89 88 86 100
77 66 65 67 67 66 72 65 60 68 58 40 39 41 38 40 52 53 58 54 50 50 46 40 38 40 40 40 40 41 46 52 60 66 72 79 75 67 80 86 86 94 96
59 67 67 63 70 83 73 73 70 54 37 36 38 43 40 40 46 50 50 50 50 45 46 45 41 42 43 45 50 50 53 60 62 68 74 70 76 83 88 98 100 100 100
75 75 74 80 86 82 72 59 49 37 32 32 36 41 43 45 48 50 48 47 46 40 40 44 48 49 48 48 46 48 54 57 60 64 74 80 87 95 98 100 100 100 100
76 94 94 78 68 73 72 56 47 36 34 30 31 37 44 44 44 44 46 47 49 53 50 50 50 47 51 54 55 54 50 52 57 64 68 76 82 88 94 97 96 95 93
88 83 83 82 72 53 43 41 40 43 45 41 35 37 39 46 49 55 58 66 74 79 73 69 70 69 72 69 67 71 78 82 86 81 84 97 99 87 86 89 95 99 100
82 76 52 45 50 55 56 53 49 43 43 48 42 39 40 42 42 63 79 81 80 75 75 76 82 78 84 85 87 91 94 96 88 81 81 83 82 86 99 100 100 100 100
64 46 54 60 60 57 53 49 48 48 47 49 52 55 48 43 43 43 55 58 61 67 81 96 98 95 93 89 82 75 78 74 77 83 75 68 66 68 73 77 78 86 86
51 61 58 53 51 49 46 46 52 59 71 84 83 78 77 82 79 61 53 64 61 59 61 60 62 80 90 79 71 67 63 58 50 45 40 39 38 35 36 45 42 46 52
61 62 61 58 59 73 87 96 92 81 67 63 63 66 66 62 56 49 40 42 41 44 41 39 37 34 36 37 35 36 34 32 29 29 31 32 32 26 29 28 30 29 32
70 66 72 85 80 73 72 68 65 66 72 78 81 75 60 51 48 42 39 36 29 28 30 36 32 31 32 33 37 40 38 38 37 35 33 36 36 36 33 29 29 33 32
78 89 96 85 87 93 82 76 73 80 82 69 58 52 48 42 38 37 33 31 25 25 26 29 32 30 28 30 28 27 34 36 37 41 43 41 37 38 38 43 42 42 32
100 94 89 99 97 80 61 71 68 66 57 43 41 38 40 41 38 35 30 24 21 19 19 21 18 21 18 18 17 17 21 20 27 33 26 25 23 17 20 29 30 32 24
98 98 92 71 58 61 61 58 58 47 41 37 39 45 37 37 36 31 26 20 18 16 11 12 10 8 8 8 8 9 9 10 11 11 12 12 13 12 12 12 13 16 20
74 59 58 58 60 60 55 49 42 39 37 38 39 43 43 34 26 22 19 18 16 11 5 6 5 6 6 6 6 7 7 8 8 10 9 10 10 11 12 12 12 14 15
56 56 58 63 59 43 36 34 37 38 45 46 42 45 36 20 18 17 14 11 6 6 5 3 4 4 4 5 5 5 5 6 6 7 7 7 8 9 11 11 12 13 14
62 67 70 52 42 34 38 40 41 43 41 44 42 25 19 17 14 10 6 5 5 4 3 2 2 4 3 4 4 4 4 4 4 4 5 5 6 6 8 9 9 12 14
71 56 48 41 32 36 40 43 45 45 43 35 23 16 13 9 6 5 5 4 3 3 3 2 2 2 3 4 3 3 3 4 4 4 4 4 5 6 6 6 7 8 11
55 47 38 30 35 40 42 45 48 48 35 20 15 11 8 5 5 4 3 3 3 3 3 2 2 2 3 3 4 3 4 4 4 4 4 5 4 5 6 6 6 6 7
47 34 30 34 42 46 54 56 53 36 22 12 8 6 5 5 4 3 3 3 3 2 2 2 2 2 2 2 3 3 3 4 5 5 5 5 4 5 6 6 6 5 6
29 34 39 41 46 56 59 54 32 22 14 8 5 5 5 3 3 3 3 3 2 2 1 1 2 2 2 2 2 3 4 4 4 6 5 7 5 6 6 7 6 6 6
39 40 42 47 54 59 48 37 20 14 7 5 5 4 3 2 3 3 3 2 2 2 2 2 2 2 2 2 2 3 4 4 5 5 6 7 5 7 8 9 8 8 8
43 45 44 52 56 51 37 20 11 8 5 5 5 3 2 3 3 2 2 2 2 2 2 2 2 2 3 2 3 3 3 4 5 4 6 7 5 8 9 9 9 9 9
44 45 52 51 48 42 19 11 7 5 5 5 4 2 2 3 3 2 2 2 2 2 2 2 3 3 3 3 3 3 3 4 4 4 5 7 7 9 10 11 12 11 11

GFSMA_250_rhum_018.txt.gz
RH
72 97 93 99 100 100 86 89 91 80 75 67 76 67 56 56 43 41 39 33 32 34 35 36 39 42 42 42 39 36 36 37 40 43 45 46 47 46 49 58 60 67 81
96 98 97 97 94 91 92 84 88 94 75 73 72 63 57 68 48 37 40 39 36 36 39 45 45 44 42 39 40 44 44 47 50 45 44 45 44 45 50 53 60 64 72
95 94 100 100 100 100 91 77 80 76 70 70 80 67 69 56 37 34 36 37 38 39 41 46 46 47 47 48 50 46 45 43 40 38 40 40 43 47 47 46 54 59 61
95 99 98 99 90 78 75 70 72 56 62 81 81 85 68 49 38 33 35 37 39 39 40 42 41 49 54 53 52 47 41 36 38 40 42 45 47 45 50 55 55 54 56
71 76 69 65 64 53 55 62 64 80 86 77 78 70 61 52 39 34 34 36 38 40 44 47 48 44 38 38 37 37 39 40 41 41 40 43 47 51 53 58 62 65 68
46 47 48 47 47 57 71 93 93 81 76 74 65 46 42 39 41 42 43 41 40 39 39 37 36 35 35 34 33 35 41 50 60 62 60 61 64 64 76 87 79 79 87
35 44 49 58 83 100 98 83 70 65 46 40 42 47 48 51 52 46 49 48 48 49 42 38 37 36 39 42 47 48 48 51 56 60 62 67 70 76 80 89 95 94 94
68 83 94 100 98 89 80 72 52 44 50 46 41 43 52 69 66 64 63 63 60 61 60 56 52 54 46 47 51 57 61 63 62 60 64 64 67 73 79 87 86 88 89
90 90 92 83 79 77 72 48 52 53 51 63 58 44 42 46 49 66 71 64 54 46 47 54 63 69 76 75 67 62 57 50 50 45 43 52 54 52 50 57 57 58 56
62 66 67 70 70 56 54 65 64 62 57 50 57 64 55 43 38 39 44 46 59 73 78 87 84 70 61 60 58 54 51 51 42 39 43 44 38 40 40 44 47 48 53
39 43 49 56 62 74 70 64 54 47 50 58 61 69 76 76 65 47 42 44 49 48 50 46 43 38 43 39 40 41 42 43 45 46 46 44 50 53 56 57 62 62 73
52 58 62 63 64 59 57 59 68 76 77 69 65 64 57 54 54 56 50 47 41 39 38 41 42 40 40 42 43 43 49 55 53 52 52 50 55 64 65 66 76 71 68
60 65 67 71 76 83 83 79 74 73 71 76 76 69 67 56 46 41 36 38 41 41 43 48 49 45 38 40 48 47 47 49 43 38 39 42 44 45 54 63 69 72 63
77 83 88 92 88 81 75 71 73 80 78 68 60 57 52 49 38 38 40 41 39 40 41 43 40 36 31 31 28 27 27 28 24 19 23 23 20 27 32 24 25 37 47
99 100 100 88 75 71 68 72 62 58 62 58 50 50 48 42 36 39 39 35 28 19 20 30 23 25 17 13 12 12 10 10 9 9 9 9 9 9 10 10 12 13 18
100 95 83 78 79 73 58 52 52 50 51 55 53 47 39 36 36 37 34 34 32 21 15 19 17 13 8 6 5 6 6 6 6 6 5 5 5 6 6 7 8 10 11
90 81 76 75 62 56 54 50 51 55 54 50 42 39 38 36 33 34 38 33 26 23 18 14 5 5 4 4 4 3 3 3 4 4 4 3 4 4 5 5 6 7 9
75 84 64 61 59 61 52 53 57 53 42 38 38 37 37 34 33 34 30 27 23 15 9 4 4 4 4 3 2 3 3 3 3 3 3 3 3 3 4 4 4 5 7
76 69 64 62 56 53 59 54 43 37 38 38 38 35 32 33 32 30 29 20 12 6 4 3 3 2 2 2 2 2 3 3 3 3 3 3 3 3 3 4 4 4 5
76 73 55 46 59 56 42 35 38 40 38 38 37 37 36 35 32 23 19 9 5 4 4 3 2 2 2 3 2 2 2 2 3 3 3 3 3 3 3 4 4 4 4
63 50 57 63 43 33 38 39 38 42 39 41 43 41 38 26 16 11 7 4 4 4 3 2 2 2 2 2 2 2 1 2 2 2 2 2 2 2 3 4 4 4 4
52 58 41 34 39 39 40 42 43 42 44 45 40 31 18 12 8 5 4 5 4 3 2 2 2 2 2 2 2 2 2 2 2 2 1 2 2 3 3 4 4 5 5
40 33 37 38 38 42 47 46 46 46 47 39 23 15 9 6 4 4 5 5 4 3 2 2 2 2 2 1 1 2 2 2 2 2 2 2 2 3 3 4 5 6 6
33 37 37 41 48 54 52 47 46 47 37 22 13 8 6 4 4 5 4 4 4 3 2 2 1 2 1 1 1 1 2 3 2 2 2 2 2 3 4 5 5 6 6
38 39 44 53 59 54 49 49 43 34 22 13 8 5 4 4 4 3 4 4 4 3 2 2 2 2 2 2 2 2 3 3 2 2 2 3 3 4 4 4 6 7 7
40 49 61 54 52 52 48 39 27 17 10 8 6 4 4 4 3 3 4 4 3 2 2 3 2 2 2 3 3 3 3 3 3 3 3 3 3 4 5 6 6 7 10

GFSMA_250_rhum_021.txt.gz
RH
11 19 26 56 86 48 78 100 100 100 100 99 96 70 80 77 78 66 70 72 65 58 38 38 39 37 36 37 38 41 44 43 41 42 44 47 49 48 46 46 45 42 46
14 21 40 48 97 93 88 89 100 100 100 81 67 78 75 77 68 65 85 81 75 60 45 33 36 37 36 36 36 38 42 43 47 50 52 52 52 53 50 45 44 46 52
19 27 66 89 87 92 100 96 83 79 79 81 82 70 63 65 58 71 83 77 70 67 50 30 27 31 33 33 34 37 40 43 44 47 49 48 47 45 45 47 51 52 55
20 24 54 84 99 100 100 100 92 83 77 70 68 58 60 75 89 76 69 62 54 44 41 41 37 32 31 35 40 44 45 45 45 44 43 43 46 52 51 47 47 52 54
22 24 30 46 59 68 76 72 66 72 65 46 54 79 99 96 83 78 60 48 46 48 54 55 61 67 61 47 42 41 44 50 48 44 48 46 43 43 46 50 52 51 53
25 22 25 34 45 49 48 52 50 51 67 83 98 100 92 72 54 46 54 56 55 59 61 59 51 55 58 61 59 51 43 46 48 48 50 52 50 48 46 46 50 62 69
35 32 30 30 36 40 45 58 71 86 99 95 95 87 78 54 58 57 60 68 66 63 62 60 64 56 57 56 53 52 45 40 38 37 44 46 46 55 67 75 67 64 60
61 59 60 61 67 74 82 91 100 100 99 92 66 60 53 66 66 60 60 62 72 83 87 80 68 58 47 41 39 39 41 40 47 52 49 57 57 54 48 42 47 51 51
51 61 68 80 86 86 85 77 74 72 72 78 59 49 52 53 58 68 85 95 90 80 72 83 77 72 69 64 61 59 55 53 50 47 48 42 39 43 43 41 41 46 47
36 37 39 45 46 45 43 45 49 51 54 62 65 64 58 49 47 54 62 63 70 76 80 73 68 68 69 64 54 45 40 38 37 38 39 42 44 46 50 51 52 54 55
44 42 43 42 41 42 47 54 58 57 54 55 56 61 68 66 61 52 47 44 45 46 55 62 55 52 53 49 41 39 40 43 47 51 51 49 50 50 50 51 52 55 58
54 62 69 71 68 67 65 66 64 62 61 63 69 69 60 59 56 57 50 51 52 49 46 50 52 49 45 42 40 39 40 42 39 39 40 42 42 41 40 42 46 49 49
55 54 61 72 86 90 84 78 80 87 90 83 69 69 73 73 56 55 51 43 44 53 52 50 48 44 39 36 33 32 32 36 34 31 29 32 35 35 35 31 32 34 39
31 32 37 44 51 63 69 70 81 87 77 84 82 68 66 57 56 51 49 49 44 43 40 42 41 37 32 29 27 24 23 23 26 29 31 32 22 11 10 10 9 8 12
29 31 37 40 40 48 60 73 92 80 78 78 68 63 54 51 57 54 46 40 37 32 35 38 35 35 30 24 23 24 24 23 17 14 11 7 5 5 5 5 6 6 6
31 32 34 39 55 89 95 93 92 88 76 68 60 54 63 58 45 44 43 38 34 31 24 30 29 28 25 21 12 7 6 5 4 4 4 4 4 3 3 4 4 4 5
35 38 45 64 80 99 100 94 80 77 68 58 55 56 43 41 42 40 37 35 32 29 20 19 21 23 13 6 6 4 3 3 3 3 3 3 3 2 2 2 3 3 3
37 49 75 96 100 94 91 88 70 62 56 52 43 40 41 42 42 36 32 28 23 20 20 16 12 6 5 4 4 4 3 2 2 2 2 2 2 2 2 2 2 2 3
54 79 95 96 78 86 75 60 60 56 40 38 40 39 40 38 31 26 21 18 19 19 14 6 4 4 4 4 2 2 2 2 2 2 2 2 2 2 2 2 2 2 3
73 90 84 81 77 56 60 62 40 35 38 39 39 42 34 30 26 20 21 20 16 8 6 4 3 3 3 2 2 2 2 2 2 2 1 1 2 2 2 2 2 2 3
82 82 74 63 59 63 43 36 35 36 37 43 41 36 32 26 24 20 14 9 6 5 4 4 3 2 2 2 2 2 2 2 2 1 1 2 2 2 2 2 2 2 2
77 63 57 64 58 42 33 32 32 40 43 41 37 30 27 23 19 10 6 6 5 4 4 2 2 2 3 2 2 2 1 1 2 1 1 1 1 2 2 2 2 2 3
59 59 60 55 37 32 31 36 42 44 40 34 30 25 20 14 6 5 6 5 6 5 2 2 2 3 3 2 1 1 1 2 1 1 1 1 2 2 2 2 2 2 3
59 57 49 36 35 37 42 48 42 38 34 31 22 14 7 5 5 5 5 6 6 4 3 2 2 2 2 2 2 2 2 1 1 2 2 2 2 3 2 2 2 3 4
54 49 40 38 44 49 48 42 35 35 32 22 10 6 5 4 4 5 5 4 4 4 3 3 2 2 3 3 3 2 2 2 3 3 3 3 3 3 3 3 3 4 5
48 43 48 50 53 55 44 36 34 26 14 8 7 6 4 4 5 4 4 4 4 4 3 3 2 3 3 3 2 3 4 4 4 4 4 3 3 3 3 3 4 5 5

GFSMA_250_rhum_024.txt.gz
RH
21 21 16 12 11 16 23 26 30 49 100 100 100 100 100 100 100 94 83 69 61 58 60 59 62 79 72 63 54 41 40 41 41 40 41 42 46 48 51 51 51 50 50
26 23 17 14 14 15 28 36 57 58 62 90 100 100 99 99 91 76 72 64 60 62 61 79 80 76 78 70 53 41 35 35 37 38 40 41 42 45 48 49 53 55 57
30 26 18 16 17 20 24 36 54 91 60 65 62 72 82 88 86 64 62 61 60 70 80 82 77 65 54 47 46 43 42 39 38 40 41 43 44 48 53 54 53 56 58
26 28 22 20 20 18 35 47 65 68 67 74 85 73 59 50 53 57 56 53 78 97 100 90 72 56 51 55 52 56 56 54 51 49 47 46 50 50 54 60 64 63 65
26 27 28 26 25 20 20 38 59 58 58 60 70 68 74 52 51 56 74 87 95 97 82 60 58 62 62 65 60 58 56 63 67 64 65 64 62 62 67 68 73 70 66
26 27 32 37 37 32 27 21 23 30 36 40 42 45 52 57 76 87 96 100 100 93 65 56 63 67 72 78 79 75 61 54 59 71 81 84 84 83 75 64 55 49 50
34 33 33 36 42 51 50 47 47 49 54 58 68 72 77 86 96 100 98 95 92 69 59 68 74 70 66 58 58 68 80 80 70 58 55 60 65 66 65 58 56 53 50
37 38 38 37 40 44 51 59 65 68 72 74 82 83 92 98 83 76 71 69 63 80 86 82 77 68 64 67 66 60 54 53 52 54 52 44 41 42 45 49 51 50 48
71 68 64 53 50 43 40 40 41 41 46 48 45 43 46 46 50 58 64 66 64 66 72 77 70 69 71 72 67 61 53 51 53 55 58 60 56 48 43 46 50 46 42
38 40 50 58 54 56 66 67 68 68 70 69 70 72 68 65 68 68 78 85 96 100 89 85 93 94 87 70 60 58 60 52 46 44 40 38 42 48 48 43 40 40 40
18 19 20 21 23 26 28 28 28 28 30 28 34 53 70 73 74 61 65 70 71 75 73 76 86 78 73 66 59 54 50 48 44 46 45 44 39 36 37 38 33 29 27
16 16 17 19 20 20 21 22 22 26 27 26 26 29 38 49 58 66 76 70 66 81 76 72 67 60 50 41 41 42 44 40 34 33 33 30 29 29 30 33 35 36 36
16 16 16 16 16 17 16 17 21 23 25 27 37 53 72 94 84 83 73 76 63 65 56 54 45 42 39 35 32 28 29 33 34 31 31 32 31 29 28 30 31 33 33
16 16 16 18 16 16 15 19 24 26 32 43 63 81 89 98 97 90 73 60 53 50 48 46 39 35 32 29 29 28 26 28 27 27 26 25 25 25 24 22 22 21 19
18 18 19 19 18 17 20 26 31 36 55 74 97 100 94 79 79 83 61 49 40 29 30 36 34 39 37 33 30 26 24 24 25 23 20 14 9 7 6 5 5 5 5
22 21 20 20 20 23 32 42 57 75 86 93 80 74 90 78 59 55 48 37 28 25 25 35 35 34 30 24 23 22 20 14 8 5 5 4 4 4 3 3 3 3 3
23 21 22 22 26 42 57 72 84 90 80 80 93 75 61 58 53 44 32 27 28 29 26 24 22 23 24 20 12 6 5 4 4 3 3 3 3 3 3 3 3 3 3
22 23 26 29 41 69 80 80 90 87 83 75 60 59 57 48 32 26 25 26 26 24 20 17 18 10 6 5 5 4 3 3 3 3 3 2 2 2 2 2 2 2 2
24 27 36 54 75 80 86 96 90 75 61 57 59 53 40 30 26 26 26 24 21 17 14 7 6 5 5 4 3 4 4 4 3 2 2 2 2 2 2 2 2 2 2
30 41 62 84 90 86 79 72 59 59 63 57 46 35 31 27 24 22 20 15 11 7 7 6 5 4 4 4 4 3 3 3 2 2 2 2 2 2 2 2 2 2 2
47 71 79 83 78 65 57 59 62 61 47 40 39 33 28 23 20 17 12 7 6 5 5 4 4 4 4 4 3 2 2 2 2 2 2 2 1 1 2 1 1 1 1
62 75 72 62 57 60 61 59 42 40 44 36 31 25 22 18 15 10 6 6 6 5 4 3 3 3 3 2 2 2 2 2 2 1 2 2 2 2 1 1 1 1 1
73 66 63 58 59 59 44 41 44 42 36 29 23 24 19 12 7 6 5 5 5 4 3 3 3 2 2 2 2 2 2 2 2 2 2 2 1 1 2 1 1 1 1
62 66 62 58 47 40 43 44 40 35 29 28 25 16 9 6 6 5 4 5 4 4 4 3 2 2 2 2 2 2 2 2 2 2 2 2 2 2 2 2 2 2 2
62 63 50 41 42 47 43 39 36 34 29 24 15 8 7 6 5 4 4 4 4 3 3 3 2 2 2 2 2 2 2 2 2 2 3 4 4 4 3 3 3 3 3
54 45 42 45 47 43 47 42 31 21 18 10 8 8 6 5 5 4 4 3 3 3 3 3 3 3 2 2 2 3 3 3 4 4 4 5 5 5 4 4 4 3 3